GW3547 Weather Reports


time (UTC)temp
F
wind
direction
speed
knots
gust
knots
rain 1hr
in
rain 24hr
in
rain mn
in
humidity
%
barometer
mb
20260504222002 70 267 1.7 7.8 0.00 0.00 0.00 36 1005.3
20260504221504 70 297 0.9 3.5 0.00 0.00 0.00 38 1005.3
20260504221004 70 263 0.9 3.5 0.00 0.00 0.00 40 1005.3
20260504220502 70 26 0.9 8.7 0.00 0.00 0.00 37 1005.3
20260504220002 70 275 1.7 8.7 0.00 0.00 0.00 38 1005.4
20260504215503 69 274 0.9 3.5 0.00 0.00 0.00 39 1005.4
20260504215005 69 222 0.9 3.5 0.00 0.00 0.00 39 1005.3
20260504214504 69 257 0.9 6.1 0.00 0.00 0.00 36 1005.3
20260504214004 70 58 1.7 10.4 0.00 0.00 0.00 37 1005.5
20260504213503 70 281 1.7 10.4 0.00 0.00 0.00 38 1005.3
20260504213006 70 135 1.7 10.4 0.00 0.00 0.00 36 1005.4
20260504212502 70 117 2.6 11.3 0.00 0.00 0.00 36 1005.4
20260504212004 70 254 1.7 11.3 0.00 0.00 0.00 36 1005.4
20260504211505 70 259 2.6 7.0 0.00 0.00 0.00 38 1005.4
20260504211004 70 252 1.7 7.0 0.00 0.00 0.00 36 1005.3
20260504210503 71 252 1.7 7.0 0.00 0.00 0.00 36 1005.3
20260504210003 71 234 1.7 7.8 0.00 0.00 0.00 36 1005.3
20260504205504 71 257 2.6 8.7 0.00 0.00 0.00 35 1005.4
20260504205002 71 177 1.7 8.7 0.00 0.00 0.00 36 1005.2
20260504204505 70 219 1.7 8.7 0.00 0.00 0.00 38 1005.3
20260504204002 70 58 1.7 12.2 0.00 0.00 0.00 37 1005.1
20260504203503 70 240 2.6 12.2 0.00 0.00 0.00 36 1005.2
20260504203003 70 329 2.6 12.2 0.00 0.00 0.00 39 1005.2
20260504202504 70 18 0.9 12.2 0.00 0.00 0.00 37 1005.2
20260504202004 70 109 2.6 7.8 0.00 0.00 0.00 36 1005.2
20260504201503 71 312 0.9 7.8 0.00 0.00 0.00 35 1005.4
20260504201007 71 283 2.6 9.6 0.00 0.00 0.00 36 1005.4
20260504200503 71 220 4.3 9.6 0.00 0.00 0.00 36 1005.4
20260504200013 70 229 1.7 4.3 0.00 0.00 0.00 40 1005.5
20260504195504 69 273 1.7 7.0 0.00 0.00 0.00 38 1005.4
20260504195007 69 263 0.9 8.7 0.00 0.00 0.00 38 1005.4
20260504194511 69 246 2.6 10.4 0.00 0.00 0.00 38 1005.4
20260504194006 68 61 2.6 10.4 0.00 0.00 0.00 38 1005.5
20260504193503 68 146 2.6 7.0 0.00 0.00 0.00 38 1005.5
20260504193010 69 268 2.6 8.7 0.00 0.00 0.00 38 1005.6
20260504192503 69 257 2.6 9.6 0.00 0.00 0.00 37 1005.6
20260504192005 69 126 2.6 11.3 0.00 0.00 0.00 40 1005.7
20260504191507 68 261 3.5 11.3 0.00 0.00 0.00 38 1005.6
20260504191004 67 315 1.7 9.6 0.00 0.00 0.00 38 1005.8
20260504190504 67 135 2.6 7.0 0.00 0.00 0.00 41 1005.8
20260504190008 67 176 2.6 7.0 0.00 0.00 0.00 39 1005.7
20260504185503 68 267 2.6 10.4 0.00 0.00 0.00 39 1005.7
20260504185005 68 216 3.5 10.4 0.00 0.00 0.00 38 1005.7
20260504184511 68 269 1.7 13.9 0.00 0.00 0.00 39 1005.8
20260504184004 68 240 2.6 13.9 0.00 0.00 0.00 39 1005.7
20260504183506 69 360 4.3 13.9 0.00 0.00 0.00 38 1005.8
20260504183015 68 233 3.5 8.7 0.00 0.00 0.00 39 1005.9
20260504182502 67 84 1.7 8.7 0.00 0.00 0.00 41 1005.7
20260504182005 67 267 1.7 8.7 0.00 0.00 0.00 40 1005.8
20260504181504 67 257 2.6 12.2 0.00 0.00 0.00 40 1005.8
20260504181004 67 296 3.5 12.2 0.00 0.00 0.00 40 1005.9
20260504180507 67 204 4.3 12.2 0.00 0.00 0.00 39 1005.9
20260504180004 68 222 3.5 9.6 0.00 0.00 0.00 37 1006.0
20260504175503 68 210 1.7 7.8 0.00 0.00 0.00 37 1005.9
20260504175005 69 169 3.5 12.2 0.00 0.00 0.00 36 1005.9
20260504174503 69 292 1.7 12.2 0.00 0.00 0.00 39 1005.7
20260504174005 69 41 2.6 13.9 0.00 0.00 0.00 40 1005.8
20260504173503 68 340 1.7 13.9 0.00 0.00 0.00 39 1005.9
20260504173005 67 273 1.7 9.6 0.00 0.00 0.00 40 1006.0
20260504172503 67 244 2.6 9.6 0.00 0.00 0.00 41 1006.0
20260504172006 67 314 3.5 17.4 0.00 0.00 0.00 38 1006.1
20260504171534 66 245 2.6 17.4 0.00 0.00 0.00 39 1006.0
20260504171005 66 258 3.5 7.8 0.00 0.00 0.00 40 1006.0
20260504170506 65 232 0.9 11.3 0.00 0.00 0.00 41 1006.1
20260504151007 63 256 2.6 8.7 0.00 0.00 0.00 43 1007.0
20260504150512 63 249 2.6 9.6 0.00 0.00 0.00 44 1007.1
20260504141006 60 230 4.3 9.6 0.00 0.00 0.00 49 1007.6
20260504140504 60 234 2.6 11.3 0.00 0.00 0.00 50 1007.8
20260504130503 54 146 0.9 9.6 0.00 0.00 0.00 60 1008.4
20260504110504 35 151 0.0 0.9 0.00 0.00 0.00 91 1009.4
20260504100501 32 151 0.9 1.7 0.00 0.00 0.00 92 1009.1
20260504082006 33 151 0.0 0.9 0.00 0.00 0.00 91 1009.0
20260504081516 33 151 0.0 1.7 0.00 0.00 0.00 91 1009.1
20260504081007 33 151 0.0 1.7 0.00 0.00 0.00 92 1009.1
20260504080507 33 151 0.0 0.9 0.00 0.00 0.00 92 1009.2
20260504050506 28 151 0.0 1.7 0.00 0.01 0.00 91 1009.1
20260504050016 28 151 0.0 0.0 0.00 0.01 0.00 91 1009.2
20260504045503 28 151 0.0 0.9 0.00 0.01 0.00 91 1009.1
20260504045006 28 151 0.0 1.7 0.00 0.01 0.00 91 1009.2
20260504044524 28 151 0.0 1.7 0.00 0.01 0.00 91 1009.2
20260504044006 28 151 0.0 0.9 0.00 0.01 0.00 91 1009.3
20260504043506 29 151 0.0 1.7 0.00 0.01 0.00 91 1009.2
20260504043021 29 151 0.0 1.7 0.00 0.01 0.00 91 1009.2
20260504042509 29 151 0.9 1.7 0.00 0.01 0.00 91 1009.2
20260504042003 29 151 0.0 0.9 0.00 0.01 0.00 90 1009.2
20260504041505 29 151 0.0 1.7 0.00 0.01 0.00 90 1009.1
20260504041003 29 151 0.0 1.7 0.00 0.01 0.00 91 1009.0
20260504040504 29 151 0.0 0.9 0.00 0.01 0.00 91 1009.0
20260504040009 30 151 0.0 0.9 0.00 0.01 0.00 90 1008.9
20260504035504 30 151 0.0 0.9 0.00 0.01 0.01 90 1009.0
20260504035004 30 151 0.0 0.0 0.00 0.01 0.01 90 1008.9
20260504034512 30 151 0.0 0.9 0.00 0.01 0.01 90 1008.9
20260504034007 30 151 0.0 1.7 0.00 0.01 0.01 90 1008.9
20260504033503 30 151 0.0 1.7 0.00 0.01 0.01 89 1008.9
20260504033008 31 151 0.9 1.7 0.00 0.01 0.01 90 1008.9
20260504032503 31 151 0.0 0.9 0.00 0.01 0.01 90 1008.8
20260504032005 31 151 0.0 0.9 0.00 0.01 0.01 90 1008.8
20260504031505 31 151 0.0 0.9 0.00 0.01 0.01 90 1008.7
20260504031003 31 151 0.0 0.9 0.00 0.01 0.01 89 1008.7
20260504030502 32 151 0.0 0.9 0.00 0.01 0.01 89 1008.7
20260504030004 32 151 0.0 0.9 0.00 0.01 0.01 89 1008.7
20260504025504 32 151 0.0 0.9 0.00 0.01 0.01 89 1008.7
20260504025004 32 151 0.0 0.9 0.00 0.01 0.01 89 1008.7
20260504024511 32 151 0.0 0.9 0.00 0.01 0.01 89 1008.7
20260504024001 32 151 0.0 0.9 0.00 0.01 0.01 88 1008.7
20260504023505 32 151 0.0 0.0 0.00 0.01 0.01 88 1008.8
20260504023016 33 151 0.0 0.0 0.00 0.01 0.01 88 1008.8
20260504022502 33 151 0.0 0.9 0.00 0.01 0.01 87 1008.8
20260504022004 33 151 0.0 0.9 0.00 0.01 0.01 87 1008.8
20260504021511 33 151 0.0 0.9 0.00 0.01 0.01 87 1008.8
20260504021006 33 151 0.0 0.0 0.00 0.01 0.01 86 1008.8
20260504020503 34 151 0.0 0.0 0.00 0.01 0.01 86 1008.7
20260504020007 34 151 0.0 0.9 0.00 0.01 0.01 86 1008.7
20260504015503 34 151 0.0 1.7 0.00 0.01 0.01 85 1008.6
20260504015004 35 151 0.0 1.7 0.00 0.01 0.01 84 1008.6
20260504014508 35 151 0.0 0.9 0.00 0.01 0.01 83 1008.5
20260504014002 35 151 0.0 0.9 0.00 0.01 0.01 83 1008.5
20260504013508 36 151 0.0 0.9 0.00 0.01 0.01 82 1008.5
20260504013004 36 151 0.0 0.9 0.00 0.01 0.01 81 1008.4
20260504012508 36 151 0.0 0.9 0.00 0.01 0.01 80 1008.4
20260504012011 37 151 0.0 0.0 0.00 0.01 0.01 80 1008.5
20260504011518 37 151 0.0 0.0 0.00 0.01 0.01 80 1008.3
20260504011004 37 151 0.0 0.0 0.00 0.01 0.01 80 1008.3
20260504010505 38 151 0.0 0.0 0.00 0.01 0.01 79 1008.4
20260504010018 38 151 0.0 0.0 0.00 0.01 0.01 79 1008.4
20260504005507 39 151 0.0 0.0 0.00 0.01 0.01 79 1008.4
20260504005003 39 151 0.0 0.0 0.00 0.01 0.01 78 1008.3
20260504004503 39 151 0.0 0.0 0.00 0.01 0.01 76 1008.2
20260504004006 40 151 0.0 0.9 0.00 0.01 0.01 74 1008.1
20260504003506 40 151 0.0 0.9 0.00 0.01 0.01 73 1008.0
20260504003008 41 151 0.0 0.9 0.00 0.01 0.01 71 1008.0
20260504002503 41 151 0.0 0.9 0.00 0.01 0.01 70 1007.9
20260504002006 42 151 0.0 0.9 0.00 0.01 0.01 68 1007.8
20260504001506 43 151 0.0 0.9 0.00 0.02 0.01 66 1007.7
20260504001003 43 151 0.0 0.9 0.00 0.02 0.01 64 1007.6
20260504000507 44 151 0.0 0.9 0.00 0.03 0.01 62 1007.5
20260504000017 45 151 0.0 3.5 0.00 0.04 0.01 62 1007.5
20260503235506 45 151 0.0 3.5 0.00 0.06 0.01 60 1007.4
20260503235004 45 231 0.0 7.0 0.00 0.08 0.01 60 1007.4
20260503234534 45 290 0.9 7.0 0.00 0.09 0.01 58 1007.4
20260503234004 46 271 0.0 5.2 0.00 0.09 0.01 57 1007.4
20260503233505 46 223 1.7 5.2 0.00 0.10 0.01 56 1007.3
20260503233007 46 275 0.0 3.5 0.00 0.10 0.01 59 1007.2
20260503232504 47 292 0.0 4.3 0.00 0.10 0.01 58 1007.1
20260503232004 47 292 0.0 4.3 0.00 0.10 0.01 55 1007.1
20260503231512 47 291 0.9 4.3 0.00 0.10 0.01 54 1007.1
20260503231008 47 217 0.9 4.3 0.00 0.10 0.01 52 1007.0
20260503230506 47 226 1.7 5.2 0.00 0.10 0.01 51 1007.0
20260503230013 48 278 0.9 7.0 0.00 0.11 0.01 50 1007.0
20260503225507 48 272 2.6 7.0 0.00 0.11 0.01 51 1006.8
20260503225006 48 239 1.7 11.3 0.00 0.11 0.01 49 1006.7
20260503224507 48 278 1.7 11.3 0.00 0.12 0.01 51 1006.7
20260503224004 48 265 2.6 9.6 0.00 0.12 0.01 53 1006.7
20260503223509 49 228 0.9 9.6 0.00 0.13 0.01 49 1006.6
20260503223021 49 277 1.7 3.5 0.00 0.13 0.01 53 1006.6
20260503222505 49 311 0.9 5.2 0.00 0.14 0.01 54 1006.5